WMT3HS LIPZ-LICC

Flight info

Callsign WMT3HS
Flight time 1h 26m
Altitude 19000
Route CHI L612 ARDAM/N0440F370 DCT VAKOR DCT PELEN DCT UXUTA
Aircraft A321/M-SDE1E2E3FGIJ1J4RWXY/LB1

Departure

Time 2026-05-04 20:04
Airport Venice Marco Polo Airport (LIPZ)

Arrival

Time 2026-05-04 21:30
Airport Catania-Fontanarossa Airport (LICC)
Time Latitude Longitude Altitude Speed Heading
2026-05-04 18:41 45.50179 12.34069 16 ft 0 kts 312°
2026-05-04 19:50 45.50171 12.34082 16 ft 4 kts 312°
2026-05-04 19:50 45.50154 12.34109 16 ft 2 kts 312°
2026-05-04 19:50 45.50141 12.34133 16 ft 4 kts 282°
2026-05-04 19:50 45.50145 12.34162 17 ft 3 kts 222°
2026-05-04 19:51 45.50138 12.34152 16 ft 1 kts 222°
2026-05-04 19:51 45.50137 12.34151 16 ft 0 kts 222°
2026-05-04 19:56 45.50134 12.34148 16 ft 2 kts 222°
2026-05-04 19:56 45.50120 12.34129 16 ft 4 kts 222°
2026-05-04 19:56 45.50093 12.34094 16 ft 7 kts 222°
2026-05-04 19:56 45.50044 12.34061 16 ft 9 kts 185°
2026-05-04 19:57 45.49972 12.34062 14 ft 11 kts 178°
2026-05-04 19:57 45.49893 12.34037 14 ft 13 kts 215°
2026-05-04 19:57 45.49827 12.33956 16 ft 13 kts 221°
2026-05-04 19:57 45.49754 12.33865 15 ft 14 kts 221°
2026-05-04 19:58 45.49679 12.33769 16 ft 15 kts 221°
2026-05-04 19:58 45.49608 12.33678 18 ft 11 kts 222°
2026-05-04 19:58 45.49561 12.33617 18 ft 7 kts 222°
2026-05-04 19:58 45.49543 12.33597 17 ft 3 kts 212°
2026-05-04 19:59 45.49516 12.33596 17 ft 5 kts 158°
2026-05-04 19:59 45.49506 12.33610 17 ft 2 kts 134°
2026-05-04 19:59 45.49505 12.33612 17 ft 0 kts 134°
2026-05-04 20:02 45.49504 12.33613 17 ft 1 kts 134°
2026-05-04 20:02 45.49493 12.33630 18 ft 4 kts 134°
2026-05-04 20:03 45.49466 12.33670 17 ft 7 kts 134°
2026-05-04 20:03 45.49425 12.33733 16 ft 10 kts 128°
2026-05-04 20:03 45.49447 12.33816 15 ft 11 kts 44°
2026-05-04 20:03 45.49458 12.33830 15 ft 3 kts 43°
2026-05-04 20:04 45.49543 12.33943 15 ft 48 kts 43°
2026-05-04 20:04 45.49992 12.34522 14 ft 126 kts 42°
2026-05-04 20:04 45.50793 12.35569 64 ft 179 kts 43°
2026-05-04 20:04 45.51690 12.36768 866 ft 176 kts 46°
2026-05-04 20:05 45.52577 12.37985 1647 ft 176 kts 45°
2026-05-04 20:05 45.53348 12.39355 2282 ft 179 kts 67°
2026-05-04 20:05 45.53614 12.41053 2957 ft 175 kts 92°
2026-05-04 20:05 45.53449 12.42790 3530 ft 184 kts 101°
2026-05-04 20:06 45.53239 12.44703 3873 ft 206 kts 100°
2026-05-04 20:06 45.53018 12.46804 4344 ft 219 kts 100°
2026-05-04 20:06 45.52797 12.48972 5142 ft 221 kts 99°
2026-05-04 20:06 45.52547 12.51137 6003 ft 222 kts 108°
2026-05-04 20:07 45.51752 12.52980 6766 ft 221 kts 143°
2026-05-04 20:07 45.50352 12.53923 7291 ft 234 kts 175°
2026-05-04 20:07 45.48667 12.53724 7660 ft 255 kts 191°
2026-05-04 20:07 45.46849 12.53265 8205 ft 271 kts 191°
2026-05-04 20:08 45.44974 12.52792 9042 ft 275 kts 191°
2026-05-04 20:08 45.43701 12.52477 9667 ft 277 kts 191°
2026-05-04 20:08 45.41790 12.52010 10501 ft 282 kts 191°
2026-05-04 20:08 45.39778 12.51523 10814 ft 305 kts 190°
2026-05-04 20:09 45.37647 12.51283 11347 ft 316 kts 182°
2026-05-04 20:09 45.35433 12.51219 12121 ft 320 kts 181°
2026-05-04 20:09 45.33193 12.51194 12952 ft 323 kts 181°
2026-05-04 20:09 45.30937 12.51183 13763 ft 326 kts 180°
2026-05-04 20:10 45.28658 12.51174 14476 ft 330 kts 181°
2026-05-04 20:10 45.26338 12.51155 15090 ft 337 kts 181°
2026-05-04 20:10 45.23971 12.51128 15703 ft 343 kts 181°
2026-05-04 20:10 45.21567 12.51097 16347 ft 348 kts 181°
2026-05-04 20:11 45.19124 12.51065 16990 ft 354 kts 182°
2026-05-04 20:11 45.16637 12.51033 17633 ft 360 kts 182°
2026-05-04 20:11 45.14112 12.51001 18270 ft 366 kts 182°
2026-05-04 20:11 45.11551 12.50973 18845 ft 371 kts 182°
2026-05-04 20:12 45.08959 12.50945 19459 ft 374 kts 182°
2026-05-04 20:12 45.06347 12.50919 20104 ft 376 kts 182°
2026-05-04 20:12 45.03719 12.50887 20753 ft 379 kts 182°
2026-05-04 20:12 45.01075 12.50851 21396 ft 382 kts 182°
2026-05-04 20:13 44.98407 12.50816 22037 ft 385 kts 182°
2026-05-04 20:13 44.95718 12.50782 22687 ft 388 kts 182°
2026-05-04 20:13 44.93018 12.50744 23331 ft 390 kts 182°
2026-05-04 20:13 44.90289 12.50704 23904 ft 393 kts 182°
2026-05-04 20:14 44.87540 12.50667 24400 ft 397 kts 182°
2026-05-04 20:14 44.84771 12.50634 24878 ft 400 kts 182°
2026-05-04 20:14 44.81969 12.50606 25355 ft 403 kts 182°
2026-05-04 20:14 44.79156 12.50814 25815 ft 409 kts 174°
2026-05-04 20:15 44.76348 12.51604 26280 ft 413 kts 170°
2026-05-04 20:15 44.73530 12.52465 26743 ft 416 kts 170°
2026-05-04 20:15 44.70689 12.53338 27196 ft 419 kts 170°
2026-05-04 20:15 44.67828 12.54215 27618 ft 423 kts 171°
2026-05-04 20:16 44.64935 12.55098 28018 ft 427 kts 171°
2026-05-04 20:16 44.62017 12.55981 28435 ft 431 kts 171°
2026-05-04 20:16 44.59078 12.56866 28852 ft 434 kts 171°
2026-05-04 20:16 44.56111 12.57755 29278 ft 437 kts 171°
2026-05-04 20:17 44.53127 12.58649 29690 ft 440 kts 171°
2026-05-04 20:17 44.50125 12.59552 30090 ft 443 kts 171°
2026-05-04 20:17 44.47102 12.60467 30411 ft 447 kts 171°
2026-05-04 20:17 44.44047 12.61393 30729 ft 450 kts 172°
2026-05-04 20:18 44.40980 12.62319 31068 ft 452 kts 172°
2026-05-04 20:18 44.37895 12.63247 31405 ft 455 kts 172°
2026-05-04 20:18 44.34795 12.64174 31748 ft 457 kts 172°
2026-05-04 20:18 44.31670 12.65108 32087 ft 460 kts 172°
2026-05-04 20:19 44.28541 12.66039 32515 ft 460 kts 173°
2026-05-04 20:19 44.25407 12.66971 32968 ft 460 kts 173°
2026-05-04 20:19 44.22283 12.67902 33442 ft 460 kts 173°
2026-05-04 20:19 44.19158 12.68835 33908 ft 459 kts 173°
2026-05-04 20:20 44.16053 12.69759 34331 ft 458 kts 173°
2026-05-04 20:20 44.12938 12.70688 34730 ft 458 kts 173°
2026-05-04 20:20 44.09824 12.71619 35118 ft 457 kts 173°
2026-05-04 20:20 44.06720 12.72547 35498 ft 457 kts 173°
2026-05-04 20:21 44.03613 12.73475 35873 ft 457 kts 173°
2026-05-04 20:21 44.00511 12.74399 36247 ft 456 kts 174°
2026-05-04 20:21 43.94294 12.76238 36919 ft 457 kts 174°
2026-05-04 20:22 43.91175 12.77154 37065 ft 457 kts 174°
2026-05-04 20:22 43.88069 12.78067 37083 ft 457 kts 173°
2026-05-04 20:22 43.81849 12.79896 37090 ft 457 kts 173°
2026-05-04 20:23 43.75624 12.81724 37096 ft 457 kts 173°
2026-05-04 20:23 43.69408 12.83551 37091 ft 457 kts 173°
2026-05-04 20:24 43.63220 12.85363 37114 ft 458 kts 173°
2026-05-04 20:24 43.56975 12.87179 37120 ft 458 kts 173°
2026-05-04 20:25 43.50745 12.89003 37122 ft 459 kts 173°
2026-05-04 20:25 43.44503 12.90823 37115 ft 459 kts 174°
2026-05-04 20:26 43.38274 12.92627 37115 ft 457 kts 173°
2026-05-04 20:26 43.32031 12.94435 37119 ft 459 kts 173°
2026-05-04 20:27 43.25794 12.96244 37108 ft 457 kts 174°
2026-05-04 20:27 43.19590 12.98033 37114 ft 459 kts 173°
2026-05-04 20:28 43.13320 12.99841 37124 ft 460 kts 173°
2026-05-04 20:28 43.07053 13.01647 37136 ft 461 kts 173°
2026-05-04 20:29 43.00767 13.03451 37158 ft 461 kts 173°
2026-05-04 20:29 42.94486 13.05245 37161 ft 461 kts 173°
2026-05-04 20:30 42.88199 13.07036 37167 ft 461 kts 173°
2026-05-04 20:30 42.81917 13.08822 37162 ft 461 kts 173°
2026-05-04 20:31 42.75650 13.10602 37170 ft 460 kts 173°
2026-05-04 20:31 42.69376 13.12384 37169 ft 460 kts 174°
2026-05-04 20:32 42.63102 13.14156 37152 ft 461 kts 173°
2026-05-04 20:32 42.56873 13.15922 37153 ft 461 kts 173°
2026-05-04 20:33 42.50584 13.17698 37167 ft 461 kts 173°
2026-05-04 20:33 42.44297 13.19462 37158 ft 462 kts 173°
2026-05-04 20:34 42.38006 13.21230 37162 ft 461 kts 173°
2026-05-04 20:34 42.31720 13.22998 37172 ft 461 kts 173°
2026-05-04 20:35 42.25437 13.24763 37181 ft 461 kts 173°
2026-05-04 20:35 42.19150 13.26520 37171 ft 462 kts 173°
2026-05-04 20:36 42.12859 13.28271 37176 ft 462 kts 173°
2026-05-04 20:36 42.06565 13.30015 37177 ft 462 kts 173°
2026-05-04 20:37 42.00267 13.31755 37179 ft 462 kts 173°
2026-05-04 20:37 41.93976 13.33489 37182 ft 462 kts 173°
2026-05-04 20:38 41.87682 13.35237 37178 ft 462 kts 173°
2026-05-04 20:38 41.81382 13.36982 37164 ft 462 kts 173°
2026-05-04 20:39 41.75131 13.38697 37172 ft 461 kts 173°
2026-05-04 20:39 41.68823 13.40422 37174 ft 462 kts 173°
2026-05-04 20:40 41.62564 13.42142 37180 ft 461 kts 173°
2026-05-04 20:40 41.56279 13.43874 37166 ft 462 kts 173°
2026-05-04 20:41 41.49986 13.45588 37175 ft 461 kts 173°
2026-05-04 20:41 41.43685 13.47303 37165 ft 462 kts 173°
2026-05-04 20:42 41.37390 13.49013 37156 ft 461 kts 173°
2026-05-04 20:42 41.31096 13.50719 37164 ft 462 kts 173°
2026-05-04 20:43 41.24791 13.52423 37162 ft 462 kts 173°
2026-05-04 20:43 41.18486 13.54126 37146 ft 463 kts 173°
2026-05-04 20:44 41.12169 13.55837 37162 ft 463 kts 172°
2026-05-04 20:44 41.05865 13.57541 37170 ft 462 kts 173°
2026-05-04 20:45 40.99563 13.59230 37170 ft 462 kts 173°
2026-05-04 20:45 40.93259 13.60918 37159 ft 462 kts 173°
2026-05-04 20:46 40.86964 13.62616 37164 ft 461 kts 173°
2026-05-04 20:46 40.80680 13.64290 37169 ft 461 kts 173°
2026-05-04 20:47 40.74404 13.65950 37158 ft 460 kts 173°
2026-05-04 20:47 40.68125 13.67618 37155 ft 461 kts 173°
2026-05-04 20:48 40.61834 13.69291 37160 ft 461 kts 173°
2026-05-04 20:48 40.55545 13.70959 37161 ft 461 kts 173°
2026-05-04 20:49 40.49294 13.72614 37143 ft 461 kts 173°
2026-05-04 20:49 40.43002 13.74282 37153 ft 462 kts 173°
2026-05-04 20:50 40.36691 13.75946 37160 ft 462 kts 173°
2026-05-04 20:50 40.30382 13.77609 37160 ft 462 kts 173°
2026-05-04 20:51 40.24075 13.79264 37163 ft 462 kts 173°
2026-05-04 20:51 40.17764 13.80918 37164 ft 462 kts 173°
2026-05-04 20:52 40.11458 13.82570 37169 ft 462 kts 173°
2026-05-04 20:52 40.05152 13.84208 37164 ft 461 kts 173°
2026-05-04 20:53 39.98864 13.85849 37180 ft 460 kts 173°
2026-05-04 20:53 39.92584 13.87489 37172 ft 460 kts 173°
2026-05-04 20:54 39.86302 13.89119 37171 ft 460 kts 173°
2026-05-04 20:54 39.80015 13.90741 37169 ft 461 kts 173°
2026-05-04 20:55 39.73719 13.92374 37168 ft 461 kts 173°
2026-05-04 20:55 39.67427 13.94002 37174 ft 461 kts 173°
2026-05-04 20:56 39.62191 13.95352 37162 ft 461 kts 174°
2026-05-04 20:56 39.55896 13.96965 37176 ft 461 kts 174°
2026-05-04 20:57 39.49614 13.98575 37177 ft 460 kts 174°
2026-05-04 20:57 39.43338 14.00186 37177 ft 460 kts 174°
2026-05-04 20:58 39.37071 14.01795 37165 ft 459 kts 174°
2026-05-04 20:58 39.30807 14.03394 37170 ft 459 kts 174°
2026-05-04 20:59 39.24547 14.04993 37171 ft 459 kts 174°
2026-05-04 20:59 39.18277 14.06581 37174 ft 459 kts 174°
2026-05-04 21:00 39.12019 14.08177 37167 ft 458 kts 174°
2026-05-04 21:00 39.05756 14.09773 37168 ft 458 kts 174°
2026-05-04 21:01 38.99505 14.11350 37171 ft 458 kts 174°
2026-05-04 21:01 38.93286 14.12912 37159 ft 458 kts 174°
2026-05-04 21:02 38.87027 14.14494 37157 ft 458 kts 174°
2026-05-04 21:02 38.80775 14.16112 37170 ft 458 kts 174°
2026-05-04 21:03 38.74525 14.17752 37163 ft 458 kts 174°
2026-05-04 21:03 38.68277 14.19383 37158 ft 458 kts 174°
2026-05-04 21:04 38.65151 14.20193 37018 ft 459 kts 174°
2026-05-04 21:04 38.62028 14.20999 36752 ft 457 kts 174°
2026-05-04 21:04 38.58908 14.21801 36496 ft 458 kts 174°
2026-05-04 21:04 38.55774 14.22608 36242 ft 460 kts 174°
2026-05-04 21:05 38.52627 14.23418 35991 ft 462 kts 174°
2026-05-04 21:05 38.49480 14.24232 35743 ft 463 kts 174°
2026-05-04 21:05 38.46325 14.25049 35486 ft 464 kts 174°
2026-05-04 21:05 38.43156 14.25865 35241 ft 464 kts 174°
2026-05-04 21:06 38.39993 14.26675 34994 ft 464 kts 174°
2026-05-04 21:06 38.36825 14.27481 34743 ft 463 kts 174°
2026-05-04 21:06 38.33674 14.28282 34513 ft 462 kts 174°
2026-05-04 21:06 38.30528 14.29086 34272 ft 460 kts 174°
2026-05-04 21:07 38.27402 14.29888 34025 ft 458 kts 174°
2026-05-04 21:07 38.24404 14.30662 33760 ft 457 kts 173°
2026-05-04 21:07 38.21293 14.31465 33472 ft 454 kts 173°
2026-05-04 21:07 38.18198 14.32260 33190 ft 451 kts 173°
2026-05-04 21:08 38.15129 14.33045 32676 ft 448 kts 173°
2026-05-04 21:08 38.12086 14.33821 32174 ft 445 kts 173°
2026-05-04 21:08 38.09056 14.34595 31662 ft 443 kts 173°
2026-05-04 21:08 38.06044 14.35364 31156 ft 440 kts 173°
2026-05-04 21:09 38.03046 14.36128 30658 ft 438 kts 173°
2026-05-04 21:09 38.00065 14.36886 30128 ft 436 kts 172°
2026-05-04 21:09 37.97106 14.37638 29625 ft 433 kts 172°
2026-05-04 21:09 37.94167 14.38384 29151 ft 429 kts 172°
2026-05-04 21:10 37.91253 14.39121 28681 ft 426 kts 172°
2026-05-04 21:10 37.88359 14.39851 28209 ft 423 kts 172°
2026-05-04 21:10 37.85479 14.40579 27763 ft 419 kts 172°
2026-05-04 21:10 37.82634 14.41296 27322 ft 416 kts 172°
2026-05-04 21:11 37.79937 14.41975 26909 ft 413 kts 172°
2026-05-04 21:11 37.77120 14.42686 26480 ft 412 kts 172°
2026-05-04 21:11 37.74317 14.43399 26050 ft 410 kts 172°
2026-05-04 21:11 37.71528 14.44105 25617 ft 408 kts 172°
2026-05-04 21:12 37.68746 14.44804 25188 ft 406 kts 172°
2026-05-04 21:12 37.66021 14.45494 24726 ft 405 kts 171°
2026-05-04 21:12 37.63278 14.46718 23737 ft 423 kts 153°
2026-05-04 21:12 37.60981 14.48966 22711 ft 425 kts 132°
2026-05-04 21:13 37.59317 14.52042 21867 ft 416 kts 115°
2026-05-04 21:13 37.58122 14.55272 20929 ft 410 kts 114°
2026-05-04 21:13 37.56945 14.58519 20052 ft 404 kts 114°
2026-05-04 21:13 37.55791 14.61718 19167 ft 398 kts 114°
2026-05-04 21:14 37.54654 14.64874 18304 ft 392 kts 114°
2026-05-04 21:14 37.53536 14.67982 17334 ft 386 kts 114°
2026-05-04 21:14 37.52443 14.71020 16699 ft 372 kts 114°
2026-05-04 21:14 37.51400 14.73906 16344 ft 354 kts 114°
2026-05-04 21:15 37.50381 14.76712 15920 ft 352 kts 114°
2026-05-04 21:15 37.49366 14.79503 15498 ft 350 kts 114°
2026-05-04 21:15 37.48356 14.82277 15063 ft 348 kts 114°
2026-05-04 21:15 37.47347 14.85039 14644 ft 347 kts 114°
2026-05-04 21:16 37.46341 14.87792 14221 ft 344 kts 115°
2026-05-04 21:16 37.45345 14.90518 13781 ft 343 kts 114°
2026-05-04 21:16 37.44355 14.93233 13353 ft 340 kts 114°
2026-05-04 21:16 37.43373 14.95924 12932 ft 337 kts 114°
2026-05-04 21:17 37.42397 14.98588 12530 ft 334 kts 114°
2026-05-04 21:17 37.41429 15.01227 12120 ft 332 kts 114°
2026-05-04 21:17 37.40466 15.03849 11786 ft 326 kts 114°
2026-05-04 21:17 37.39534 15.06392 11661 ft 315 kts 114°
2026-05-04 21:18 37.38633 15.08848 11530 ft 304 kts 114°
2026-05-04 21:18 37.37821 15.11246 11405 ft 293 kts 106°
2026-05-04 21:18 37.37479 15.13731 11180 ft 285 kts 90°
2026-05-04 21:18 37.37655 15.16209 10787 ft 286 kts 77°
2026-05-04 21:19 37.38010 15.18653 10521 ft 282 kts 78°
2026-05-04 21:19 37.38358 15.21070 10182 ft 280 kts 78°
2026-05-04 21:19 37.38700 15.23473 9677 ft 280 kts 78°
2026-05-04 21:19 37.39036 15.25868 9355 ft 277 kts 78°
2026-05-04 21:20 37.39370 15.28263 8919 ft 280 kts 78°
2026-05-04 21:20 37.39704 15.30648 8705 ft 273 kts 79°
2026-05-04 21:20 37.40028 15.32981 8402 ft 271 kts 79°
2026-05-04 21:20 37.40346 15.35284 8053 ft 271 kts 79°
2026-05-04 21:21 37.40672 15.37652 7630 ft 274 kts 79°
2026-05-04 21:21 37.40995 15.39991 7222 ft 276 kts 79°
2026-05-04 21:21 37.41322 15.42366 6901 ft 274 kts 80°
2026-05-04 21:21 37.41645 15.44698 6685 ft 268 kts 80°
2026-05-04 21:22 37.41961 15.46979 6447 ft 252 kts 80°
2026-05-04 21:22 37.42246 15.49049 6258 ft 235 kts 80°
2026-05-04 21:22 37.42582 15.51021 6078 ft 230 kts 67°
2026-05-04 21:22 37.43533 15.52580 5893 ft 226 kts 34°
2026-05-04 21:23 37.44992 15.53252 5702 ft 225 kts
2026-05-04 21:23 37.46552 15.53159 5501 ft 226 kts 346°
2026-05-04 21:23 37.47994 15.52401 5303 ft 226 kts 326°
2026-05-04 21:23 37.49142 15.51066 5107 ft 226 kts 306°
2026-05-04 21:24 37.49853 15.49319 4908 ft 225 kts 285°
2026-05-04 21:24 37.50031 15.47379 4703 ft 223 kts 264°
2026-05-04 21:24 37.49874 15.45429 4502 ft 224 kts 263°
2026-05-04 21:24 37.49723 15.43487 4301 ft 223 kts 263°
2026-05-04 21:25 37.49564 15.41553 4101 ft 222 kts 262°
2026-05-04 21:25 37.49401 15.39626 3900 ft 221 kts 263°
2026-05-04 21:25 37.49246 15.37707 3706 ft 220 kts 262°
2026-05-04 21:25 37.49087 15.35796 3509 ft 219 kts 262°
2026-05-04 21:26 37.48932 15.33895 3308 ft 218 kts 262°
2026-05-04 21:26 37.48781 15.31999 3109 ft 217 kts 262°
2026-05-04 21:26 37.48631 15.30116 2906 ft 215 kts 263°
2026-05-04 21:26 37.48478 15.28267 2740 ft 208 kts 264°
2026-05-04 21:27 37.48334 15.26527 2521 ft 201 kts 264°
2026-05-04 21:27 37.48193 15.24794 2330 ft 197 kts 264°
2026-05-04 21:27 37.48053 15.23084 2138 ft 195 kts 264°
2026-05-04 21:27 37.47915 15.21390 2055 ft 195 kts 265°
2026-05-04 21:28 37.47777 15.19701 1867 ft 190 kts 264°
2026-05-04 21:28 37.47642 15.18099 1632 ft 178 kts 264°
2026-05-04 21:28 37.47520 15.16603 1388 ft 164 kts 265°
2026-05-04 21:28 37.47409 15.15273 1202 ft 145 kts 264°
2026-05-04 21:29 37.47307 15.14059 1010 ft 136 kts 264°
2026-05-04 21:29 37.47208 15.12891 829 ft 132 kts 264°
2026-05-04 21:29 37.47113 15.11749 659 ft 131 kts 264°
2026-05-04 21:29 37.47019 15.10617 483 ft 129 kts 264°
2026-05-04 21:30 37.46920 15.09492 312 ft 129 kts 263°
2026-05-04 21:30 37.46823 15.08364 172 ft 130 kts 258°
2026-05-04 21:30 37.46731 15.07246 53 ft 121 kts 262°
2026-05-04 21:30 37.46666 15.06526 52 ft 39 kts 264°
2026-05-04 21:31 37.46709 15.06294 51 ft 12 kts
2026-05-04 21:31 37.46773 15.06313 51 ft 7 kts 14°
2026-05-04 21:31 37.46817 15.06356 51 ft 9 kts 69°
2026-05-04 21:32 37.46827 15.06446 51 ft 12 kts 83°
2026-05-04 21:32 37.46840 15.06536 51 ft 10 kts 60°
2026-05-04 21:32 37.46889 15.06555 51 ft 7 kts 17°
2026-05-04 21:32 37.46919 15.06568 49 ft 4 kts 19°
2026-05-04 21:33 37.46934 15.06575 51 ft 0 kts 19°